Terug naar catalogus

CZ-4B R/B

ActiefLEO
NORAD 46470·ROCKET BODY·🇨🇳 China

Gelanceerd Sep 21, 2020 vanaf Jiuquan Satellite Launch Center

Loading…

Volgende Passages (komende 24 uur)

TLE

VersSource: Space-Track

Epoch: Sep 14, 2026, 11:54 UTC

1 46470U 20066B   26257.49625399 -.00000014  00000-0  27798-4 0  9997
2 46470  66.0564 293.6292 0192647 158.8315 202.0891 14.29943416312127

Volg CZ-4B R/B in realtime met AllMySat

Download on the App Store